STARLINK-31854, 59671

Orbit data source: Space-Track

STARLINK-31854, 59671 is a payload satellite owned by SpaceX/Seattle (US) in LEO that was launched on Mon, 06 May 2024 UTC via an FALCON 9 launch vehicle from the Air Force Eastern Test Range (AFETR). Payload-class satellites include a variety of spacecraft equipped with specific instruments for various scientific and technological missions. These include communications satellites like Starlink; space stations such as the ISS; scientific satellites like the Hubble; Earth observation satellites from companies like Planet Labs, Umbra, and HawkEye 360; GPS; miniature CubeSats for education and research; and military/defense satellites.

Loading next visibility...
Identifier
59671, 2024-084T
Orbit
LEO
Country
Flag of USUS
Related business
Manufacturer
SpaceX/Seattle
Mission
Operational Commercial Communications
Bus & Motor
STARLINK V2M, Unknown motor
Mass
730 kg wet, ~700 kg dry
Launch date (UTC)
2024-05-06 (2 years ago)
Launch vehicle
FALCON 9
Launch site
Air Force Eastern Test Range (AFETR)
Object type
Payload
Rocket body
Debris
Shape & HBR
Box + 2 Pan, 17.7 m
Radar Cross Section
33.884 m², Large (>1 m²)

Expand to show TLE details & history
Last TLE update: 2 days ago

TLE from 2 days ago
0 STARLINK-31854
1 59671U 24084T   26171.30492183  .00002235  00000-0  90696-4 0  9999
2 59671  43.0009 149.2507 0001214 278.3715  81.6999 15.27584435120420
Epoch: 2026-06-20T07:19Z
TLE epoch observation values (Epoch: 2026-06-20T07:19:05.246Z)
Latitude
-0°
Longitude
130.95738°
Altitude
482.691 km
Speed
7.626 km/s
True Right ascension
09h 57m 00s
True Declination
0° 00' 00"
Sunlit
Object was in daylight at epoch
Visualization orbit readout
Latitude
Unknown
Longitude
Unknown
Altitude
Unknown
Speed
Unknown
Apparent Right ascension
Unknown
Apparent Declination
Unknown
Sunlit
N/A
Visualization observer readout
Local Sidereal Time
21:37:52
Azimuth
Unknown
Elevation
Unknown
Doppler factor
Unknown
Orbital elements
Apogee altitude
485.814 km
Perigee altitude
484.148 km
Semi-major axis
6,863.118 km
Eccentricity
0.00012
Inclination
43.0009°
RAAN
149.2507°
Arg. of periapsis
278.3715°
True anomaly
81.71367°
Mean anomaly
81.6999°
Eccentric anomaly
81.70678°
Mean motion
3.81734 °/min
Orbital period
94.31 mins
BSTAR
0.000090696
Loading maneuver chart data...
Computing Atmospheric mass density...
Loading historical data...
Loading historical data...
Loading historical data...
Loading historical data...
Loading historical data...
Loading historical data...
Loading historical data...

Documentation

Showing up to 5 results
|